Weather History for Hot Springs, VA

Change the Weather History Date:

Thursday, August 1, 2013

  Actual Average Record
Temperature  
Mean Temperature 66 °F -  
Max Temperature 71 °F 74 °F 84 °F (2002)
Min Temperature 60 °F 59 °F 55 °F (2010)
Growing Degree Days 16 (Base 50)    
Moisture  
Dew Point 62 °F    
Average Humidity 93    
Maximum Humidity 100    
Minimum Humidity 73    
Precipitation  
Precipitation 0.12 in - - ()
Sea Level Pressure  
Sea Level Pressure 30.09 in    
Wind  
Wind Speed 9 mph (West)    
Max Wind Speed 15 mph    
Max Gust Speed 22 mph    
Visibility 6 miles    
Events Fog , Rain , Thunderstorm    
Averages and records for this station are not official NWS values.
T = Trace of Precipitation, MM = Missing Value Source: NWS Daily Summary

Daily Weather History Graph

Daily Weather History Graph

Search for Another Location

Airport:

Trip Planner

Search our weather history database for the weather conditions in past years. The results will help you decide how hot, cold, wet, or windy it might be!

Date:

Astronomy

Aug. 01, 2013 Rise Set
Actual Time 6:22 AM EDT 8:28 PM EDT
Civil Twilight 5:53 AM EDT 8:57 PM EDT
Nautical Twilight 5:17 AM EDT 9:32 PM EDT
Astronomical Twilight 4:39 AM EDT 10:11 PM EDT
Moon 1:58 AM EDT (8/1) 4:34 PM EDT (8/1)
Length of Visible Light 15h 03m
Length of Day
14h 05m
Waning Crescent, 23% of the Moon is Illuminated
Aug 1
Waning Crescent
Aug 6
New
Aug 14
First Quarter
Aug 20
Full
Aug 28
Last Quarter

Hourly Weather History & Observations

Time (EDT) Temp. Dew Point Humidity Pressure Visibility Wind Dir Wind Speed Gust Speed Precip Events Conditions
12:15 AM 60.8 °F 60.8 °F 100% 30.15 in 0.2 mi South 8.1 mph - N/A Rain Light Rain
12:35 AM 60.8 °F 60.8 °F 100% 30.14 in 0.2 mi South 8.1 mph - N/A Rain Heavy Rain
12:55 AM 60.8 °F 60.8 °F 100% 30.14 in 0.2 mi South 6.9 mph - N/A   Heavy Drizzle
1:15 AM 60.8 °F 60.8 °F 100% 30.13 in 0.2 mi South 9.2 mph - 0.01 in Rain Light Rain
1:35 AM 60.8 °F 60.8 °F 100% 30.13 in 0.2 mi South 5.8 mph - 0.01 in Rain Rain
1:55 AM 60.8 °F 60.8 °F 100% 30.12 in 0.2 mi South 6.9 mph - N/A Rain Light Rain
2:15 AM 60.8 °F 60.8 °F 100% 30.11 in 0.2 mi South 9.2 mph - 0.01 in Rain Light Rain
2:35 AM 60.8 °F 60.8 °F 100% 30.11 in 0.5 mi SSW 8.1 mph - 0.01 in   Light Drizzle
2:55 AM 60.8 °F 60.8 °F 100% 30.10 in 0.2 mi SSW 8.1 mph - N/A Rain Light Rain
3:15 AM 60.8 °F 60.8 °F 100% 30.09 in 0.2 mi SSW 6.9 mph - N/A Fog Fog
3:35 AM 60.8 °F 60.8 °F 100% 30.08 in 7.0 mi SW 8.1 mph - 0.03 in   Drizzle
3:55 AM 60.8 °F 60.8 °F 100% 30.07 in 7.0 mi SSW 4.6 mph - 0.01 in Thunderstorm Thunderstorm
4:15 AM 60.8 °F 60.8 °F 100% 30.07 in 0.2 mi SW 8.1 mph - 0.01 in Rain Rain
4:35 AM 60.8 °F 60.8 °F 100% 30.08 in 0.2 mi WSW 6.9 mph - 0.01 in Rain Heavy Rain
4:55 AM 60.8 °F 60.8 °F 100% 30.07 in 0.2 mi West 5.8 mph - 0.01 in   Heavy Drizzle
5:15 AM 60.8 °F 60.8 °F 100% 30.08 in 0.2 mi West 8.1 mph - 0.04 in Rain Light Rain
5:35 AM 60.8 °F 60.8 °F 100% 30.07 in 0.2 mi West 5.8 mph - 0.05 in Rain Rain
5:55 AM 60.8 °F 60.8 °F 100% 30.07 in 0.2 mi West 9.2 mph - N/A Rain Light Rain
6:15 AM 60.8 °F 60.8 °F 100% 30.06 in 0.2 mi West 10.4 mph - 0.01 in Rain Light Rain
6:35 AM 60.8 °F 60.8 °F 100% 30.06 in 0.2 mi WNW 13.8 mph - 0.01 in   Heavy Drizzle
6:55 AM 60.8 °F 60.8 °F 100% 30.06 in 0.2 mi West 11.5 mph - N/A Rain Light Rain
7:15 AM 60.8 °F 60.8 °F 100% 30.07 in 0.2 mi West 9.2 mph - N/A Rain Heavy Rain
7:35 AM 60.8 °F 60.8 °F 100% 30.07 in 0.2 mi West 9.2 mph - N/A Rain Rain
7:55 AM 60.8 °F 60.8 °F 100% 30.08 in 0.2 mi West 8.1 mph - N/A Rain Heavy Rain
8:15 AM 60.8 °F 60.8 °F 100% 30.08 in 0.2 mi West 10.4 mph - N/A Rain Light Rain
8:35 AM 60.8 °F 60.8 °F 100% 30.09 in 0.2 mi West 8.1 mph - N/A Rain Light Rain
8:55 AM 62.6 °F 62.6 °F 100% 30.09 in 0.2 mi West 9.2 mph - N/A Rain Light Rain
9:15 AM 62.6 °F 62.6 °F 100% 30.10 in 0.2 mi West 10.4 mph - N/A Fog Fog
9:35 AM 62.6 °F 62.6 °F 100% 30.10 in 0.2 mi West 8.1 mph - N/A Fog Fog
9:55 AM 62.6 °F 62.6 °F 100% 30.09 in 0.5 mi West 8.1 mph - N/A Fog Fog
10:15 AM 62.6 °F 62.6 °F 100% 30.10 in 10.0 mi NW 8.1 mph - N/A   Overcast
10:35 AM 62.6 °F 62.6 °F 100% 30.10 in 5.0 mi WNW 6.9 mph - N/A   Overcast
10:55 AM 64.4 °F 64.4 °F 100% 30.10 in 10.0 mi West 6.9 mph - N/A   Overcast
11:15 AM 64.4 °F 64.4 °F 100% 30.10 in 10.0 mi West 9.2 mph - N/A   Mostly Cloudy
11:35 AM 64.4 °F 62.6 °F 94% 30.11 in 10.0 mi West 5.8 mph - N/A   Overcast
11:55 AM 66.2 °F 64.4 °F 94% 30.10 in 10.0 mi West 5.8 mph - N/A   Overcast
12:15 PM 66.2 °F 64.4 °F 94% 30.10 in 10.0 mi West 8.1 mph - N/A   Overcast
12:35 PM 69.8 °F 64.4 °F 83% 30.10 in 10.0 mi WNW 6.9 mph - N/A   Overcast
12:55 PM 68.0 °F 62.6 °F 83% 30.10 in 10.0 mi West 9.2 mph - N/A   Overcast
1:15 PM 69.8 °F 64.4 °F 83% 30.09 in 10.0 mi West 9.2 mph - N/A   Mostly Cloudy
1:35 PM 69.8 °F 64.4 °F 83% 30.09 in 10.0 mi West 11.5 mph 16.1 mph N/A   Mostly Cloudy
1:55 PM 69.8 °F 64.4 °F 83% 30.08 in 10.0 mi West 11.5 mph - N/A   Mostly Cloudy
2:15 PM 69.8 °F 64.4 °F 83% 30.08 in 10.0 mi West 13.8 mph 17.3 mph N/A   Mostly Cloudy
2:35 PM 69.8 °F 64.4 °F 83% 30.08 in 10.0 mi West 10.4 mph 18.4 mph N/A   Mostly Cloudy
2:55 PM 68.0 °F 62.6 °F 83% 30.08 in 10.0 mi WNW 11.5 mph 20.7 mph N/A   Mostly Cloudy
3:15 PM 68.0 °F 62.6 °F 83% 30.07 in 10.0 mi WNW 8.1 mph - N/A   Mostly Cloudy
3:35 PM 66.2 °F 62.6 °F 88% 30.07 in 10.0 mi West 10.4 mph 18.4 mph N/A   Mostly Cloudy
3:55 PM 71.6 °F 64.4 °F 78% 30.07 in 10.0 mi West 10.4 mph - N/A   Clear
4:15 PM 71.6 °F 64.4 °F 78% 30.06 in 10.0 mi West 12.7 mph - N/A   Clear
4:35 PM 69.8 °F 64.4 °F 83% 30.06 in 10.0 mi West 12.7 mph - N/A   Scattered Clouds
4:55 PM 71.6 °F 62.6 °F 73% 30.05 in 10.0 mi West 13.8 mph 19.6 mph N/A   Scattered Clouds
5:15 PM 69.8 °F 60.8 °F 73% 30.06 in 10.0 mi WNW 13.8 mph 21.9 mph N/A   Scattered Clouds
5:35 PM 69.8 °F 60.8 °F 73% 30.06 in 10.0 mi WNW 15.0 mph 19.6 mph N/A   Scattered Clouds
5:55 PM 68.0 °F 60.8 °F 78% 30.07 in 10.0 mi West 12.7 mph 17.3 mph N/A   Scattered Clouds
6:15 PM 66.2 °F 60.8 °F 83% 30.06 in 10.0 mi West 11.5 mph 17.3 mph N/A   Scattered Clouds
6:35 PM 66.2 °F 60.8 °F 83% 30.07 in 10.0 mi West 12.7 mph 18.4 mph N/A   Clear
6:55 PM 66.2 °F 62.6 °F 88% 30.07 in 10.0 mi West 10.4 mph - N/A   Scattered Clouds
7:15 PM 66.2 °F 60.8 °F 83% 30.08 in 10.0 mi West 10.4 mph 16.1 mph N/A   Clear
7:35 PM 66.2 °F 60.8 °F 83% 30.08 in 10.0 mi West 12.7 mph 19.6 mph N/A   Clear
7:55 PM 64.4 °F 60.8 °F 88% 30.08 in 10.0 mi West 10.4 mph - N/A   Clear
8:15 PM 64.4 °F 60.8 °F 88% 30.09 in 10.0 mi West 10.4 mph - N/A   Clear
8:35 PM 64.4 °F 60.8 °F 88% 30.10 in 10.0 mi West 10.4 mph - N/A   Scattered Clouds
8:55 PM 64.4 °F 60.8 °F 88% 30.10 in 10.0 mi West 11.5 mph - N/A Thunderstorm Scattered Clouds
9:15 PM 64.4 °F 60.8 °F 88% 30.11 in 10.0 mi West 11.5 mph - N/A   Clear
9:35 PM 62.6 °F 60.8 °F 94% 30.11 in 10.0 mi West 10.4 mph - N/A   Scattered Clouds
9:55 PM 62.6 °F 60.8 °F 94% 30.12 in 10.0 mi West 9.2 mph - N/A   Scattered Clouds
10:15 PM 62.6 °F 60.8 °F 94% 30.12 in 10.0 mi West 10.4 mph - N/A   Clear
10:35 PM 62.6 °F 60.8 °F 94% 30.12 in 10.0 mi West 11.5 mph - N/A   Clear
10:55 PM 62.6 °F 60.8 °F 94% 30.12 in 10.0 mi West 11.5 mph - N/A   Scattered Clouds
11:15 PM 62.6 °F 60.8 °F 94% 30.11 in 10.0 mi WNW 11.5 mph - N/A   Scattered Clouds
11:35 PM 60.8 °F 60.8 °F 100% 30.11 in 10.0 mi WNW 10.4 mph - N/A   Clear
11:55 PM 60.8 °F 60.8 °F 100% 30.11 in 7.0 mi WNW 11.5 mph - N/A   Clear